Weather Roundup
Issued by NWS

Home | Current Version | Previous Version | Text Only | Print | Product List | Glossary On
Versions: 1 2 3 4 5 6 7 8 9 10 11 12 13 14 15 16 17 18 19 20 21 22 23 24 25 26 27 28 29 30 31 32 33 34 35 36 37 38 39 40 41 42 43 44 45 46 47 48 49 50
774
NZUS93 KARX 242210
HRRWXR

CURRENT HOURLY OBSERVATIONS ACROSS
MUCH OF THE UPPER MISSISSIPPI VALLEY
NATIONAL WEATHER SERVICE LA CROSSE WI
400 PM CST FRI FEB 24 2017


...SOUTHEAST MINNESOTA...


CITY           SKY/WX    TMP DP  RH WIND       PRES   REMARKS
ROCHESTER      FOG       23  20  88 N18G29    29.71R VSB 1   WCI   9
ROCHESTER/MAYO CLOUDY    24  23  98 N10G21    29.72S WCI  13
WINONA         MIX PCPN  30  25  80 N10G16    29.73R WCI  21
AUSTIN           N/A     23  19  86 N15G23    29.72R WCI  10
ALBERT LEA     LGT SNOW  23  21  93 N12G18    29.75R WCI  12
DODGE CENTER     N/A     21  19  93 N22G28    29.73R WCI   5
PRESTON        CLOUDY    24  20  87 N16G25    29.68R WCI  10
OWATONNA         N/A     23  19  86 N21       29.77R WCI   8
FARIBAULT      LGT SNOW  25  18  74 N16G23    29.79R WCI  12
$$

...ELSEWHERE IN MINNESOTA...


CITY           SKY/WX    TMP DP  RH WIND       PRES   REMARKS
MINNEAPOLIS    CLOUDY    27  12  53 N21G29    29.82S WCI  13
INTNL FALLS    MOSUNNY   20   4  50 N10       29.96F WCI   9
DULUTH         MOSUNNY   20   9  62 N13       29.84S WCI   7
RED WING       LGT SNOW  25  18  74 N6G17     29.77S WCI  18
REDWOOD FALLS  CLOUDY    29   9  43 N17G32    29.88R WCI  17
MANKATO          N/A     26  17  68 N25       29.81R WCI  11
WORTHINGTON    LGT SNOW  24  17  74 N29       29.85R WCI   7
FAIRMONT       MOSUNNY   24  17  74 N23       29.81R WCI   9
$$

...SOUTHWEST WISCONSIN...


CITY           SKY/WX    TMP DP  RH WIND       PRES   REMARKS
LA CROSSE      FLURRIES  29  24  82 N14       29.69R WCI  18
PRAIRIE DU CHI CLOUDY    30  28  90 N8        29.64R FOG     WCI  22
BOSCOBEL       CLOUDY    30  25  81 N7        29.63S WCI  23
LONE ROCK      CLOUDY    30  25  81 N9        29.62R WCI  22
PLATTEVILLE    CLOUDY    30  30  99 N10       29.59R WCI  21
FORT MC COY    PTSUNNY   27  24  88 N8G17     29.67R WCI  19
CAMP DOUGLAS   FRZ DRZL  27  23  86 N8        29.63S WCI  18
MAUSTON-NEW LI MIX PCPN  27  25  92 N8        29.62S WCI  19
VIROQUA        CLOUDY    26  24  90 N13G18    29.62R WCI  15
WIS DELLS      CLOUDY    27  26  94 N8        29.60R FOG     WCI  19
$$

...ELSEWHERE IN WISCONSIN...


CITY           SKY/WX    TMP DP  RH WIND       PRES   REMARKS
MILWAUKEE      CLOUDY    36  33  89 N20G25    29.48S FOG     WCI  25
MADISON        FRZ DRZL  28  26  92 N20       29.57R FOG     WCI  15
GREEN BAY      LGT SNOW  28  27  96 N18       29.58S FOG     WCI  15
EAU CLAIRE     LGT SNOW  23  19  85 N15       29.73R FOG     WCI  10
BLACK RVR FLS  CLOUDY    27  22  80 N7        29.67R WCI  20
MEDFORD        CLOUDY    22  16  78 N14G20    29.65R WCI   9
WAUSAU         CLOUDY    24  17  74 N13       29.63R WCI  12
WIS RAPIDS     LGT SNOW  25  23  92 N14G21    29.63F FOG     WCI  13
MARSHFIELD     FLURRIES  25  17  72 N10G22    29.62F WCI  15
RICE LAKE      LGT SNOW  23  16  74 N20       29.78S WCI   8
$$

...NORTHEAST IOWA...


CITY           SKY/WX    TMP DP  RH WIND       PRES   REMARKS
WATERLOO       LGT SNOW  30  27  88 N16       29.66R FOG     WCI  19
DUBUQUE        CLOUDY    30  29  96 N12       29.58R FOG     WCI  20
DECORAH        LGT RAIN  27  25  93 N13G22    29.64R WCI  16
MASON CITY     LGT SNOW  23  23 100 N23       29.75R FOG     WCI   7
CHARLES CITY   MIX PCPN  27  25  93 N18G29    29.69R VSB 1/2 WCI  13
OELWEIN        MOSUNNY   28  28 100 N20G30    29.64R FOG     WCI  15
$$

...ELSEWHERE IN IOWA...


CITY           SKY/WX    TMP DP  RH WIND       PRES   REMARKS
DES MOINES     LGT SNOW  27  24  89 N15G26    29.74R VSB 3/4 WCI  15
IOWA CITY      LGT SNOW  34  31  88 N9        29.63R FOG     WCI  27
FORT DODGE     CLOUDY    23  18  80 N12G25    29.79R VSB 1   WCI  12
MARSHALLTOWN   LGT SNOW  27  25  92 N29G35    29.69R FOG     WCI  11
CEDAR RAPIDS   LGT SNOW  31  31 100 N13       29.62R FOG     WCI  21
$$

...NORTHERN ILLINOIS...


CITY           SKY/WX    TMP DP  RH WIND       PRES   REMARKS
CHICAGO-OHARE  CLOUDY    40  38  93 NW5       29.49R FOG
CHICAGO-MIDWAY CLOUDY    41  37  86 NW9       29.48R
MOLINE         CLOUDY    40  34  79 NW9       29.57R HAZE    WCI  34
ROCKFORD       DRIZZLE   37  34  89 N9        29.54R FOG     WCI  30
PEORIA         CLOUDY    44  37  76 W17       29.59R
$$

NOTE: "FAIR" INDICATES FEW OR NO CLOUDS BELOW 12,000 FEET WITH NO
SIGNIFICANT WEATHER AND/OR OBSTRUCTIONS TO VISIBILITY. WIND
SPEEDS ARE IN MILES-PER-HOUR.




USA.gov is the U.S. government's official web portal to all federal, state and local government web resources and services.